{"data":{"norad_id":62331,"epoch":"2026-05-25T03:06:51.726240Z","epoch_age_seconds":57662,"freshness":"FRESH","line1":"1 62331U 24240J   26145.12976535  .00000059  00000+0  10393-3 0  9995","line2":"2 62331  86.5002 351.0446 0001496  83.7892 276.3412 13.24407341 69580","mean_motion":13.24407341,"eccentricity":0.0001496,"inclination_deg":86.5002,"raan_deg":351.0446,"arg_perigee_deg":83.7892,"mean_anomaly_deg":276.3412,"bstar":0.00010393,"rev_number":6958,"period_min":108.72787815512,"perigee_km":1166.803393759,"apogee_km":1169.0611776893,"semimajor_km":7546.0692857241,"source":"CELESTRAK","updated_at":"2026-05-25T13:38:02.938513Z"}}